When you browse on this site, cookies collect data to enhance your experience and personalize the content and advertising you see.
Visit our Privacy Policy to learn more. By continuing to use the site, you agree to this use of cookies and data.

Hourly Weather Zastavne

Today, 22 September, Tuesday

Time Temperature Precipitation Wind Pressure Humidity
00:00 +14°C° 0 mm 1 mps 743 mmHg 64%
01:00 +14°C° 0 mm 1 mps 743 mmHg 65%
02:00 +13°C° 0 mm 1 mps 743 mmHg 66%
03:00 +13°C° 0 mm 1 mps 743 mmHg 67%
04:00 +13°C° 0 mm 1 mps 742 mmHg 67%
05:00 +12°C° 0 mm 1 mps 742 mmHg 68%
06:00 +13°C° 0 mm 1 mps 742 mmHg 67%
07:00 +14°C° 0 mm 1 mps 743 mmHg 66%
08:00 +15°C° 0 mm 1 mps 743 mmHg 65%
09:00 +18°C° 0 mm 2 mps 743 mmHg 60%
10:00 +20°C° 0 mm 2 mps 743 mmHg 56%
11:00 +23°C° 0 mm 2 mps 743 mmHg 51%
12:00 +24°C° 0 mm 2 mps 742 mmHg 48%
13:00 +25°C° 0 mm 2 mps 742 mmHg 44%
14:00 +26°C° 0 mm 2 mps 742 mmHg 41%
15:00 +25°C° 0 mm 2 mps 742 mmHg 46%
16:00 +25°C° 0 mm 2 mps 741 mmHg 51%
17:00 +24°C° 0 mm 2 mps 740 mmHg 56%
18:00 +21°C° 0 mm 2 mps 740 mmHg 60%
19:00 +19°C° 0 mm 2 mps 740 mmHg 64%
20:00 +17°C° 0 mm 2 mps 740 mmHg 68%
21:00 +17°C° 0 mm 2 mps 740 mmHg 65%
22:00 +16°C° 0 mm 3 mps 740 mmHg 62%
23:00 +16°C° 0 mm 3 mps 740 mmHg 60%

Tomorrow, 23 September, Wednesday

Time Temperature Precipitation Wind Pressure Humidity
00:00 +14°C° 0 mm 3 mps 739 mmHg 58%
01:00 +14°C° 0 mm 3 mps 739 mmHg 57%
02:00 +14°C° 0 mm 2 mps 739 mmHg 56%
03:00 +14°C° 0 mm 2 mps 739 mmHg 57%
04:00 +14°C° 0 mm 2 mps 739 mmHg 57%
05:00 +13°C° 0 mm 2 mps 739 mmHg 58%
06:00 +14°C° 0 mm 2 mps 739 mmHg 59%
07:00 +15°C° 0 mm 2 mps 739 mmHg 60%
08:00 +15°C° 0 mm 2 mps 739 mmHg 62%
09:00 +18°C° 0 mm 2 mps 738 mmHg 58%
10:00 +20°C° 0 mm 2 mps 738 mmHg 53%
11:00 +24°C° 0 mm 3 mps 738 mmHg 49%
12:00 +25°C° 0 mm 2 mps 738 mmHg 47%
13:00 +26°C° 0 mm 2 mps 738 mmHg 44%
14:00 +27°C° 0 mm 2 mps 738 mmHg 42%
15:00 +26°C° 0 mm 2 mps 737 mmHg 47%
16:00 +25°C° 0 mm 3 mps 737 mmHg 52%
17:00 +24°C° 0 mm 3 mps 737 mmHg 57%
18:00 +21°C° 0 mm 3 mps 737 mmHg 60%
19:00 +20°C° 0 mm 3 mps 737 mmHg 64%
20:00 +18°C° 0 mm 3 mps 737 mmHg 67%
21:00 +17°C° 0 mm 3 mps 737 mmHg 65%
22:00 +17°C° 0 mm 3 mps 737 mmHg 62%
23:00 +16°C° 0 mm 3 mps 736 mmHg 60%

Day after tomorrow, 24 September, Thursday

Time Temperature Precipitation Wind Pressure Humidity
00:00 +16°C° 0 mm 3 mps 736 mmHg 59%
01:00 +16°C° 0 mm 3 mps 736 mmHg 58%
02:00 +16°C° 0 mm 2 mps 736 mmHg 58%
03:00 +15°C° 0 mm 2 mps 736 mmHg 59%
04:00 +14°C° 0 mm 3 mps 736 mmHg 59%
05:00 +13°C° 0 mm 3 mps 736 mmHg 60%
06:00 +14°C° 0 mm 3 mps 736 mmHg 61%
07:00 +16°C° 0 mm 3 mps 736 mmHg 61%
08:00 +16°C° 0 mm 3 mps 736 mmHg 61%
09:00 +19°C° 0 mm 3 mps 736 mmHg 58%
10:00 +21°C° 0 mm 3 mps 736 mmHg 55%
11:00 +24°C° 0 mm 3 mps 737 mmHg 52%
12:00 +25°C° 0 mm 3 mps 737 mmHg 51%
13:00 +25°C° 0 mm 3 mps 737 mmHg 50%
14:00 +26°C° 0 mm 3 mps 737 mmHg 49%
15:00 +26°C° 0 mm 2 mps 736 mmHg 53%
16:00 +25°C° 0 mm 2 mps 736 mmHg 57%
17:00 +24°C° 0 mm 2 mps 736 mmHg 61%
18:00 +21°C° 0.2 mm 2 mps 736 mmHg 65%
19:00 +20°C° 0.2 mm 2 mps 736 mmHg 69%
20:00 +18°C° 0.2 mm 2 mps 736 mmHg 73%
21:00 +17°C° 0 mm 2 mps 736 mmHg 74%
22:00 +17°C° 0 mm 2 mps 737 mmHg 76%
23:00 +17°C° 0 mm 2 mps 737 mmHg 78%

25 September, Friday

Time Temperature Precipitation Wind Pressure Humidity
00:00 +16°C° 0 mm 2 mps 736 mmHg 78%
01:00 +16°C° 0 mm 2 mps 736 mmHg 79%
02:00 +16°C° 0 mm 1 mps 736 mmHg 79%
03:00 +16°C° 0 mm 2 mps 736 mmHg 79%
04:00 +15°C° 0 mm 2 mps 735 mmHg 79%
05:00 +15°C° 0 mm 2 mps 735 mmHg 79%
06:00 +16°C° 0 mm 2 mps 735 mmHg 77%
07:00 +17°C° 0 mm 2 mps 735 mmHg 76%
08:00 +17°C° 0 mm 3 mps 735 mmHg 74%
09:00 +20°C° 0 mm 3 mps 734 mmHg 68%
10:00 +22°C° 0 mm 4 mps 734 mmHg 62%
11:00 +25°C° 0 mm 4 mps 734 mmHg 56%
12:00 +25°C° 0 mm 4 mps 734 mmHg 53%
13:00 +26°C° 0 mm 4 mps 733 mmHg 51%
14:00 +27°C° 0 mm 4 mps 733 mmHg 48%
15:00 +26°C° 0 mm 4 mps 732 mmHg 51%
16:00 +25°C° 0 mm 3 mps 732 mmHg 55%
17:00 +24°C° 0 mm 3 mps 731 mmHg 58%
18:00 +22°C° 0 mm 3 mps 731 mmHg 60%
19:00 +21°C° 0 mm 4 mps 731 mmHg 62%
20:00 +20°C° 0 mm 4 mps 731 mmHg 63%
21:00 +20°C° 0 mm 4 mps 731 mmHg 63%
22:00 +20°C° 0 mm 4 mps 730 mmHg 62%
23:00 +20°C° 0 mm 4 mps 730 mmHg 61%

26 September, Saturday

Time Temperature Precipitation Wind Pressure Humidity
00:00 +20°C° 0 mm 4 mps 730 mmHg 62%
01:00 +19°C° 0 mm 5 mps 729 mmHg 63%
02:00 +19°C° 0 mm 5 mps 729 mmHg 64%
03:00 +17°C° 0 mm 5 mps 728 mmHg 68%
04:00 +17°C° 0 mm 5 mps 728 mmHg 72%
05:00 +16°C° 0 mm 5 mps 728 mmHg 76%
06:00 +17°C° 0 mm 6 mps 727 mmHg 75%
07:00 +17°C° 0 mm 6 mps 727 mmHg 75%
08:00 +18°C° 0 mm 7 mps 727 mmHg 75%
09:00 +20°C° 0 mm 8 mps 727 mmHg 69%
10:00 +22°C° 0 mm 8 mps 727 mmHg 64%
11:00 +23°C° 0 mm 9 mps 727 mmHg 58%
12:00 +24°C° 0 mm 9 mps 726 mmHg 56%
13:00 +26°C° 0 mm 8 mps 726 mmHg 55%
14:00 +26°C° 0 mm 8 mps 726 mmHg 53%
15:00 +24°C° 0.2 mm 7 mps 725 mmHg 58%
16:00 +23°C° 0.2 mm 5 mps 725 mmHg 63%
17:00 +22°C° 0.2 mm 4 mps 725 mmHg 68%
18:00 +21°C° 0.5 mm 4 mps 724 mmHg 68%
19:00 +21°C° 0.5 mm 5 mps 724 mmHg 68%
20:00 +21°C° 0.5 mm 5 mps 723 mmHg 69%
21:00 +20°C° 0.1 mm 7 mps 723 mmHg 68%
22:00 +19°C° 0.1 mm 9 mps 723 mmHg 67%
23:00 +19°C° 0.1 mm 11 mps 722 mmHg 66%

27 September, Sunday

Time Temperature Precipitation Wind Pressure Humidity
00:00 +18°C° 1.4 mm 10 mps 722 mmHg 73%
01:00 +17°C° 1.4 mm 9 mps 723 mmHg 81%
02:00 +15°C° 1.4 mm 7 mps 723 mmHg 89%
03:00 +15°C° 2.8 mm 6 mps 723 mmHg 90%
04:00 +14°C° 2.8 mm 5 mps 723 mmHg 91%
05:00 +13°C° 2.8 mm 4 mps 724 mmHg 92%
06:00 +13°C° 1.9 mm 4 mps 724 mmHg 92%
07:00 +12°C° 1.9 mm 4 mps 725 mmHg 91%
08:00 +12°C° 1.9 mm 4 mps 726 mmHg 91%
09:00 +12°C° 0.1 mm 4 mps 726 mmHg 84%
10:00 +13°C° 0.1 mm 5 mps 727 mmHg 78%
11:00 +13°C° 0.1 mm 5 mps 728 mmHg 71%
12:00 +13°C° 0 mm 5 mps 729 mmHg 69%
13:00 +14°C° 0 mm 5 mps 729 mmHg 67%
14:00 +14°C° 0 mm 5 mps 730 mmHg 65%
15:00 +14°C° 0.1 mm 4 mps 731 mmHg 69%
16:00 +13°C° 0.1 mm 3 mps 732 mmHg 74%
17:00 +13°C° 0.1 mm 2 mps 732 mmHg 78%
18:00 +12°C° 0 mm 2 mps 733 mmHg 80%
19:00 +12°C° 0 mm 2 mps 734 mmHg 82%
20:00 +10°C° 0 mm 2 mps 735 mmHg 84%
21:00 +10°C° 0 mm 2 mps 735 mmHg 84%
22:00 +9°C° 0 mm 2 mps 736 mmHg 84%
23:00 +9°C° 0 mm 2 mps 736 mmHg 84%
Show more